EB5IGQ-5 Weather Reports


time (UTC)temp
C
wind
direction
speed
KPH
gust
KPH
rain 1hr
cm
rain 24hr
cm
rain mn
cm
humidity
%
barometer
mb
20190425041304 11 195 4.8 16.1 0.03 0.03 0.03 85 1010.5
20190425040256 12 215 11.3 22.5 0.00 0.00 0.00 81 1010.5
20190425035304 12 227 11.3 19.3 0.00 0.00 0.00 80 1010.4
20190425033304 12 192 9.7 24.1 0.00 0.00 0.00 75 1010.5
20190425031303 12 220 12.9 35.4 0.00 0.00 0.00 73 1010.5
20190425030255 12 254 12.9 24.1 0.00 0.00 0.00 73 1010.7
20190425025303 13 210 12.9 30.6 0.00 0.00 0.00 72 1010.7
20190425023954 12 223 9.7 16.1 0.00 0.00 0.00 72 1011.0
20190425023302 12 231 9.7 19.3 0.00 0.00 0.00 71 1010.9
20190425021302 12 228 4.8 14.5 0.00 0.00 0.00 73 1011.2
20190425015304 12 292 3.2 6.4 0.00 0.00 0.00 76 1011.2
20190425013955 11 294 4.8 9.7 0.00 0.00 0.00 77 1011.2
20190425013303 11 215 3.2 14.5 0.00 0.00 0.00 77 1011.0
20190425011303 11 203 8.0 14.5 0.00 0.00 0.00 79 1011.0
20190425010255 11 223 4.8 9.7 0.00 0.00 0.00 78 1011.0
20190425005303 11 212 6.4 14.5 0.00 0.00 0.00 78 1011.2
20190425003302 12 217 4.8 9.7 0.00 0.00 0.00 75 1011.2
20190425001302 12 218 8.0 19.3 0.00 0.00 0.00 74 1011.2
20190425000254 12 267 4.8 17.7 0.00 0.00 0.00 74 1011.5
20190424235302 12 226 9.7 19.3 0.00 0.00 0.00 74 1011.5
20190424233337 12 243 14.5 24.1 0.00 0.00 0.00 72 1011.7
20190424233304 12 243 14.5 24.1 0.00 0.00 0.00 72 1011.7
20190424231303 12 238 8.0 14.5 0.00 0.00 0.00 72 1011.7
20190424230255 12 210 8.0 14.5 0.00 0.00 0.00 72 1011.5
20190424225303 12 249 4.8 19.3 0.00 0.00 0.00 71 1011.4
20190424223303 12 225 9.7 14.5 0.00 0.00 0.00 71 1011.2
20190424221302 12 233 6.4 9.7 0.00 0.00 0.00 71 1011.5
20190424220254 12 250 4.8 9.7 0.00 0.00 0.00 71 1011.5
20190424215302 12 223 4.8 9.7 0.00 0.00 0.00 71 1011.4
20190424213302 13 231 6.4 16.1 0.00 0.00 0.00 70 1011.7
20190424211302 13 222 8.0 14.5 0.00 0.00 0.00 68 1011.5
20190424210254 13 183 9.7 14.5 0.00 0.00 0.00 66 1011.5
20190424205304 13 200 6.4 16.1 0.00 0.00 0.00 65 1011.5
20190424203304 13 215 6.4 12.9 0.00 0.00 0.00 65 1011.7
20190424201303 13 203 6.4 14.5 0.00 0.00 0.00 62 1011.7
20190424200253 13 238 6.4 14.5 0.00 0.00 0.00 62 1011.4
20190424195304 13 347 3.2 9.7 0.00 0.00 0.00 62 1011.2
20190424193302 14 271 1.6 9.7 0.00 0.00 0.00 61 1010.9
20190424191302 14 300 6.4 14.5 0.00 0.00 0.00 58 1010.5
20190424190254 14 262 6.4 14.5 0.00 0.00 0.00 58 1010.5
20190424185304 15 286 3.2 8.0 0.00 0.00 0.00 58 1010.7
20190424183303 15 223 1.6 19.3 0.00 0.00 0.00 54 1010.2
20190424181303 15 218 6.4 19.3 0.00 0.00 0.00 54 1010.2
20190424180254 15 233 3.2 11.3 0.00 0.00 0.00 54 1009.9
20190424175302 15 193 6.4 17.7 0.00 0.00 0.00 54 1009.7
20190424173302 15 257 6.4 12.9 0.00 0.00 0.00 54 1009.7
20190424171302 15 194 6.4 22.5 0.00 0.00 0.00 53 1009.7
20190424170254 15 252 8.0 19.3 0.00 0.00 0.00 52 1009.7
20190424165302 16 243 3.2 20.9 0.00 0.00 0.00 51 1009.7
20190424163304 16 262 14.5 19.3 0.00 0.00 0.00 50 1009.5
20190424161304 17 288 12.9 20.9 0.00 0.00 0.00 49 1009.7
20190424160253 16 210 11.3 22.5 0.00 0.00 0.00 50 1009.7
20190424155303 17 216 14.5 19.3 0.00 0.00 0.00 47 1009.9
20190424153303 15 218 9.7 17.7 0.00 0.00 0.00 54 1009.7
20190424151303 15 222 11.3 19.3 0.00 0.00 0.00 54 1010.0
20190424150253 15 219 9.7 17.7 0.00 0.00 0.00 56 1010.0
20190424145303 15 247 9.7 14.5 0.00 0.00 0.00 55 1010.0
20190424143304 15 196 9.7 14.5 0.00 0.00 0.00 56 1010.4
20190424141303 15 250 4.8 17.7 0.00 0.00 0.00 58 1010.5
20190424140253 15 218 14.5 22.5 0.00 0.00 0.00 57 1010.5
20190424135303 15 202 9.7 16.1 0.00 0.00 0.00 57 1010.5
20190424133303 15 249 6.4 17.7 0.00 0.00 0.00 57 1010.5
20190424131302 15 221 9.7 17.7 0.00 0.03 0.00 56 1010.5
20190424130254 15 229 9.7 22.5 0.00 0.03 0.00 54 1010.7
20190424125302 15 224 6.4 20.9 0.00 0.03 0.00 52 1010.7
20190424123302 15 208 9.7 20.9 0.00 0.08 0.00 56 1010.7
20190424121302 15 202 12.9 19.3 0.00 0.08 0.00 58 1010.9
20190424120254 14 251 12.9 19.3 0.00 0.08 0.00 56 1010.9
20190424115302 14 230 9.7 24.1 0.00 0.08 0.00 56 1010.7
20190424113304 14 208 8.0 24.1 0.00 0.10 0.00 57 1010.9
20190424111304 12 268 9.7 27.4 0.00 0.13 0.00 60 1011.0
20190424110254 12 227 14.5 24.1 0.00 0.13 0.00 61 1011.0
20190424105305 12 244 12.9 27.4 0.00 0.13 0.00 61 1011.2
20190424103303 11 211 9.7 24.1 0.00 0.13 0.00 61 1011.0
20190424101303 11 199 14.5 24.1 0.00 0.13 0.00 61 1011.0
20190424100253 11 276 11.3 24.1 0.00 0.13 0.00 63 1011.0
20190424095305 11 229 14.5 29.0 0.00 0.13 0.00 62 1011.0
20190424093303 10 237 12.9 24.1 0.00 0.13 0.00 65 1011.0
20190424091303 10 217 16.1 25.7 0.00 0.13 0.00 66 1010.7
20190424090255 10 231 11.3 22.5 0.00 0.13 0.00 64 1010.9
20190424085303 10 240 4.8 14.5 0.00 0.13 0.00 69 1010.9
20190424083302 10 239 12.9 24.1 0.00 0.13 0.00 67 1010.7
20190424081303 7 175 6.4 14.5 0.00 0.13 0.00 73 1010.2
20190424080253 7 220 8.0 14.5 0.00 0.13 0.00 72 1010.5
20190424075305 9 239 9.7 14.5 0.00 0.13 0.00 72 1010.5
20190424073303 7 225 9.7 19.3 0.00 0.13 0.00 76 1010.2
20190424071304 7 269 4.8 12.9 0.00 0.13 0.00 76 1010.2
20190424070253 7 347 4.8 12.9 0.00 0.13 0.00 75 1009.7
20190424065303 7 315 6.4 14.5 0.00 0.13 0.00 78 1009.7
20190424063303 6 303 4.8 19.3 0.00 0.13 0.00 83 1009.2
20190424061303 5 258 3.2 9.7 0.00 0.13 0.00 89 1008.9
20190424060253 5 241 4.8 9.7 0.00 0.13 0.00 90 1008.7
20190424055303 5 208 1.6 6.4 0.00 0.13 0.00 91 1008.7
20190424053303 5 233 1.6 9.7 0.00 0.13 0.00 91 1008.4
20190424051303 5 265 4.8 6.4 0.00 0.13 0.00 89 1008.2
20190424050254 5 299 3.2 6.4 0.00 0.13 0.00 89 1008.0
20190424045304 5 258 0.0 9.7 0.00 0.13 0.00 88 1008.0
20190424043303 5 264 3.2 9.7 0.00 0.13 0.00 86 1007.7